Location: Buckeye Ditch
(40.9104°N, 122.9517°W)
Time: 15:38:01
(UTC+00:00)

A-11 Canister half - Pass Details

Date: 27 May 2025
Orbit: 1515 x 1684 km, 47.2° (Epoch: 14 June)

Event Time Altitude Azimuth Distance (km) Brightness Sun altitude
Rises 05:07:31 0° 224° (SW) 4,845 11.6 -14.8°
Reaches altitude 10° 05:10:43 10° 221° (SW) 3,838 11.0 -15.3°
Maximum altitude 05:20:17 63° 143° (SE) 1,728 9.0 -16.5°
Drops below altitude 10° 05:29:31 10° 65° (ENE) 3,722 10.9 -17.6°
Sets 05:32:34 0° 62° (ENE) 4,691 11.4 -17.9°
